Time,TemperatureF,DewpointF,PressureIn,WindDirection,WindDirectionDegrees,WindSpeedMPH,WindSpeedGustMPH,Humidity,HourlyPrecipIn,Conditions,Clouds,dailyrainin,SolarRadiationWatts/m^2,SoftwareType,DateUTC
2013-01-03 00:00:00,38.5,36.9,30.20,NNE,32,0.0,1.0,94,0.00,,,0.29,0,Wunderground v.1.15,2013-01-03 05:00:00,
2013-01-03 00:05:00,38.5,36.9,30.20,NNE,32,0.0,1.0,94,0.00,,,0.00,0,Wunderground v.1.15,2013-01-03 05:05:00,
2013-01-03 00:10:00,38.4,36.8,30.20,NNE,32,0.0,1.0,94,0.00,,,0.00,0,Wunderground v.1.15,2013-01-03 05:10:00,
2013-01-03 00:15:00,38.4,37.1,30.20,NNE,32,0.0,1.0,95,0.00,,,0.00,0,Wunderground v.1.15,2013-01-03 05:15:00,
2013-01-03 00:20:00,38.3,37.0,30.20,NNE,32,0.0,1.0,95,0.00,,,0.00,0,Wunderground v.1.15,2013-01-03 05:20:00,
2013-01-03 00:25:00,38.2,36.6,30.19,NNE,32,0.0,1.0,94,0.00,,,0.00,0,Wunderground v.1.15,2013-01-03 05:25:00,
2013-01-03 00:35:00,38.1,36.8,30.19,NNE,32,0.0,1.0,95,0.00,,,0.00,0,Wunderground v.1.15,2013-01-03 05:35:00,
2013-01-03 00:40:00,38.1,36.8,30.19,NNE,32,0.0,1.0,95,0.00,,,0.00,0,Wunderground v.1.15,2013-01-03 05:40:00,
2013-01-03 00:45:00,38.0,36.7,30.18,NNE,32,0.0,1.0,95,0.00,,,0.00,0,Wunderground v.1.15,2013-01-03 05:45:00,
2013-01-03 00:50:00,38.0,36.7,30.18,NNE,32,0.0,1.0,95,0.00,,,0.00,0,Wunderground v.1.15,2013-01-03 05:50:00,
2013-01-03 01:00:00,38.0,36.7,30.19,NNE,32,0.0,1.0,95,0.00,,,0.00,0,Wunderground v.1.15,2013-01-03 06:00:00,
2013-01-03 01:10:00,38.1,36.8,30.20,NNE,32,0.0,1.0,95,0.00,,,0.00,0,Wunderground v.1.15,2013-01-03 06:10:00,
2013-01-03 01:15:00,38.1,36.8,30.20,NNE,32,0.0,1.0,95,0.00,,,0.00,0,Wunderground v.1.15,2013-01-03 06:15:00,
2013-01-03 01:20:00,38.0,36.7,30.20,NNE,32,0.0,1.0,95,0.00,,,0.00,0,Wunderground v.1.15,2013-01-03 06:20:00,
2013-01-03 01:25:00,38.0,36.7,30.20,NNE,32,0.0,1.0,95,0.00,,,0.00,0,Wunderground v.1.15,2013-01-03 06:25:00,
2013-01-03 01:30:00,38.0,36.7,30.19,NNE,32,0.0,1.0,95,0.00,,,0.00,0,Wunderground v.1.15,2013-01-03 06:30:00,
2013-01-03 01:40:00,37.9,36.6,30.19,NNE,32,0.0,1.0,95,0.00,,,0.00,0,Wunderground v.1.15,2013-01-03 06:40:00,
2013-01-03 01:45:00,37.9,36.6,30.19,NNE,32,0.0,1.0,95,0.00,,,0.00,0,Wunderground v.1.15,2013-01-03 06:45:00,
2013-01-03 01:50:00,37.9,36.6,30.19,NNE,32,0.0,1.0,95,0.00,,,0.00,0,Wunderground v.1.15,2013-01-03 06:50:00,
2013-01-03 02:00:00,37.9,36.6,30.19,NNE,32,0.0,1.0,95,0.00,,,0.00,0,Wunderground v.1.15,2013-01-03 07:00:00,
2013-01-03 02:05:00,37.9,36.6,30.18,NNE,32,0.0,1.0,95,0.00,,,0.00,0,Wunderground v.1.15,2013-01-03 07:05:00,
2013-01-03 02:15:00,37.8,36.8,30.19,NNE,32,0.0,1.0,96,0.00,,,0.00,0,Wunderground v.1.15,2013-01-03 07:15:00,
2013-01-03 02:20:00,37.9,36.9,30.19,NNE,32,0.0,1.0,96,0.00,,,0.00,0,Wunderground v.1.15,2013-01-03 07:20:00,
2013-01-03 02:25:00,37.8,36.8,30.20,NNE,32,0.0,1.0,96,0.00,,,0.00,0,Wunderground v.1.15,2013-01-03 07:25:00,
2013-01-03 02:30:00,37.8,36.8,30.20,NNE,32,0.0,1.0,96,0.00,,,0.00,0,Wunderground v.1.15,2013-01-03 07:30:00,
2013-01-03 02:35:00,37.8,36.8,30.20,NNE,32,0.0,1.0,96,0.00,,,0.00,0,Wunderground v.1.15,2013-01-03 07:35:00,
2013-01-03 02:40:00,37.7,36.7,30.19,NNE,32,0.0,1.0,96,0.00,,,0.00,0,Wunderground v.1.15,2013-01-03 07:40:00,
2013-01-03 02:45:00,37.7,36.7,30.19,NNE,32,0.0,1.0,96,0.00,,,0.00,0,Wunderground v.1.15,2013-01-03 07:45:00,
2013-01-03 02:50:00,37.7,36.7,30.20,NNE,32,0.0,1.0,96,0.00,,,0.00,0,Wunderground v.1.15,2013-01-03 07:50:00,
2013-01-03 02:55:00,37.7,36.7,30.20,NNE,32,0.0,1.0,96,0.00,,,0.00,0,Wunderground v.1.15,2013-01-03 07:55:00,
2013-01-03 03:00:00,37.8,36.8,30.20,NNE,32,0.0,1.0,96,0.00,,,0.00,0,Wunderground v.1.15,2013-01-03 08:00:00,
2013-01-03 03:10:00,37.8,36.8,30.20,NNE,32,0.0,1.0,96,0.00,,,0.00,0,Wunderground v.1.15,2013-01-03 08:10:00,
2013-01-03 03:15:00,37.7,36.7,30.19,NNE,32,0.0,1.0,96,0.00,,,0.00,0,Wunderground v.1.15,2013-01-03 08:15:00,
2013-01-03 03:25:00,37.8,36.8,30.21,NNE,32,0.0,1.0,96,0.00,,,0.00,0,Wunderground v.1.15,2013-01-03 08:25:00,
2013-01-03 03:30:00,37.8,36.8,30.21,NNE,32,0.0,1.0,96,0.00,,,0.00,0,Wunderground v.1.15,2013-01-03 08:30:00,
2013-01-03 03:35:00,37.7,36.7,30.21,NNE,32,0.0,1.0,96,0.00,,,0.00,0,Wunderground v.1.15,2013-01-03 08:35:00,
2013-01-03 03:40:00,37.6,36.3,30.20,NNE,32,0.0,1.0,95,0.00,,,0.00,0,Wunderground v.1.15,2013-01-03 08:40:00,
2013-01-03 03:45:00,37.6,36.3,30.19,NNE,32,0.0,1.0,95,0.00,,,0.00,0,Wunderground v.1.15,2013-01-03 08:45:00,
2013-01-03 03:55:00,37.5,36.2,30.20,NNE,32,0.0,1.0,95,0.00,,,0.00,0,Wunderground v.1.15,2013-01-03 08:55:00,
2013-01-03 04:05:00,37.5,36.2,30.19,NNE,32,0.0,1.0,95,0.00,,,0.00,0,Wunderground v.1.15,2013-01-03 09:05:00,
2013-01-03 04:10:00,37.5,36.2,30.19,NNE,32,0.0,1.0,95,0.00,,,0.00,0,Wunderground v.1.15,2013-01-03 09:10:00,
2013-01-03 04:15:00,37.4,36.1,30.19,NNE,32,0.0,1.0,95,0.00,,,0.00,0,Wunderground v.1.15,2013-01-03 09:15:00,
2013-01-03 04:20:00,37.4,36.1,30.20,NNE,32,0.0,1.0,95,0.00,,,0.00,0,Wunderground v.1.15,2013-01-03 09:20:00,
2013-01-03 04:25:00,37.3,36.0,30.20,NNE,32,0.0,1.0,95,0.00,,,0.00,0,Wunderground v.1.15,2013-01-03 09:25:00,
2013-01-03 04:30:00,37.2,35.9,30.20,NNE,32,0.0,1.0,95,0.00,,,0.00,0,Wunderground v.1.15,2013-01-03 09:30:00,
2013-01-03 04:40:00,37.1,35.8,30.20,NNE,32,0.0,1.0,95,0.00,,,0.00,0,Wunderground v.1.15,2013-01-03 09:40:00,
2013-01-03 04:45:00,37.1,35.8,30.19,NNE,32,0.0,1.0,95,0.00,,,0.00,0,Wunderground v.1.15,2013-01-03 09:45:00,
2013-01-03 04:50:00,37.0,35.7,30.19,NNE,32,0.0,1.0,95,0.00,,,0.00,0,Wunderground v.1.15,2013-01-03 09:50:00,
2013-01-03 04:55:00,36.9,35.3,30.19,NNE,32,0.0,1.0,94,0.00,,,0.00,0,Wunderground v.1.15,2013-01-03 09:55:00,
2013-01-03 05:00:00,36.8,35.2,30.20,NNE,32,0.0,1.0,94,0.00,,,0.00,0,Wunderground v.1.15,2013-01-03 10:00:00,
2013-01-03 05:05:00,36.7,35.1,30.20,NNE,32,0.0,1.0,94,0.00,,,0.00,0,Wunderground v.1.15,2013-01-03 10:05:00,
2013-01-03 05:10:00,36.7,35.1,30.20,NNE,32,0.0,1.0,94,0.00,,,0.00,0,Wunderground v.1.15,2013-01-03 10:10:00,
2013-01-03 05:15:00,36.7,35.1,30.19,NNE,32,0.0,1.0,94,0.00,,,0.00,0,Wunderground v.1.15,2013-01-03 10:15:00,
2013-01-03 05:25:00,36.6,35.0,30.19,NNE,32,0.0,1.0,94,0.00,,,0.00,0,Wunderground v.1.15,2013-01-03 10:25:00,
2013-01-03 05:30:00,36.5,34.9,30.19,NNE,32,0.0,1.0,94,0.00,,,0.00,0,Wunderground v.1.15,2013-01-03 10:30:00,
2013-01-03 05:35:00,36.5,34.9,30.20,NNE,32,0.0,1.0,94,0.00,,,0.00,0,Wunderground v.1.15,2013-01-03 10:35:00,
2013-01-03 05:40:00,36.5,34.9,30.20,NNE,32,0.0,1.0,94,0.00,,,0.00,0,Wunderground v.1.15,2013-01-03 10:40:00,
2013-01-03 05:45:00,36.5,34.9,30.20,NNE,32,0.0,1.0,94,0.00,,,0.00,0,Wunderground v.1.15,2013-01-03 10:45:00,
2013-01-03 05:50:00,36.5,34.9,30.20,NNE,32,0.0,1.0,94,0.00,,,0.00,0,Wunderground v.1.15,2013-01-03 10:50:00,
2013-01-03 05:55:00,36.5,34.9,30.20,NNE,32,0.0,1.0,94,0.00,,,0.00,0,Wunderground v.1.15,2013-01-03 10:55:00,
2013-01-03 06:00:00,36.6,35.0,30.20,NNE,32,0.0,1.0,94,0.00,,,0.00,0,Wunderground v.1.15,2013-01-03 11:00:00,
2013-01-03 06:05:00,36.6,35.0,30.21,NNE,32,0.0,1.0,94,0.00,,,0.00,0,Wunderground v.1.15,2013-01-03 11:05:00,
2013-01-03 06:10:00,36.5,34.7,30.21,NNE,32,0.0,1.0,93,0.00,,,0.00,0,Wunderground v.1.15,2013-01-03 11:10:00,
2013-01-03 06:15:00,36.5,34.7,30.21,NNE,32,0.0,1.0,93,0.00,,,0.00,0,Wunderground v.1.15,2013-01-03 11:15:00,
2013-01-03 06:20:00,36.4,34.3,30.20,NNE,32,0.0,1.0,92,0.00,,,0.00,0,Wunderground v.1.15,2013-01-03 11:20:00,
2013-01-03 06:25:00,36.4,34.3,30.20,NNE,32,0.0,1.0,92,0.00,,,0.00,0,Wunderground v.1.15,2013-01-03 11:25:00,
2013-01-03 06:35:00,36.4,34.3,30.20,NNE,32,0.0,1.0,92,0.00,,,0.00,0,Wunderground v.1.15,2013-01-03 11:35:00,
2013-01-03 06:40:00,36.4,34.3,30.20,NNE,32,0.0,1.0,92,0.00,,,0.00,0,Wunderground v.1.15,2013-01-03 11:40:00,
2013-01-03 06:45:00,36.3,33.9,30.21,NNE,32,0.0,1.0,91,0.00,,,0.00,0,Wunderground v.1.15,2013-01-03 11:45:00,
2013-01-03 06:50:00,36.3,33.9,30.22,NNE,32,0.0,1.0,91,0.00,,,0.00,0,Wunderground v.1.15,2013-01-03 11:50:00,
2013-01-03 06:55:00,36.3,33.9,30.23,NNE,32,0.0,1.0,91,0.00,,,0.00,0,Wunderground v.1.15,2013-01-03 11:55:00,
2013-01-03 07:05:00,36.3,33.9,30.23,NNE,32,0.0,1.0,91,0.00,,,0.00,0,Wunderground v.1.15,2013-01-03 12:05:00,
2013-01-03 07:10:00,36.3,33.6,30.23,NNE,32,0.0,1.0,90,0.00,,,0.00,0,Wunderground v.1.15,2013-01-03 12:10:00,
2013-01-03 07:15:00,36.3,33.6,30.23,NNE,32,0.0,1.0,90,0.00,,,0.00,0,Wunderground v.1.15,2013-01-03 12:15:00,
2013-01-03 07:20:00,36.2,33.5,30.23,NNE,32,0.0,1.0,90,0.00,,,0.00,0,Wunderground v.1.15,2013-01-03 12:20:00,
2013-01-03 07:25:00,36.1,33.2,30.23,NNE,32,0.0,1.0,89,0.00,,,0.00,0,Wunderground v.1.15,2013-01-03 12:25:00,
2013-01-03 07:30:00,35.9,32.7,30.23,NNE,32,0.0,1.0,88,0.00,,,0.00,0,Wunderground v.1.15,2013-01-03 12:30:00,
2013-01-03 07:35:00,35.8,32.9,30.24,NNE,32,0.0,1.0,89,0.00,,,0.00,0,Wunderground v.1.15,2013-01-03 12:35:00,
2013-01-03 07:45:00,35.8,32.9,30.24,NNE,32,0.0,1.0,89,0.00,,,0.00,7,Wunderground v.1.15,2013-01-03 12:45:00,
2013-01-03 07:50:00,35.7,32.5,30.23,NNE,32,0.0,1.0,88,0.00,,,0.00,7,Wunderground v.1.15,2013-01-03 12:50:00,
2013-01-03 08:00:00,35.7,32.5,30.24,NNE,32,0.0,1.0,88,0.00,,,0.00,11,Wunderground v.1.15,2013-01-03 13:00:00,
2013-01-03 08:05:00,35.6,32.1,30.24,NNE,32,0.0,1.0,87,0.00,,,0.00,14,Wunderground v.1.15,2013-01-03 13:05:00,
2013-01-03 08:10:00,35.6,32.4,30.24,NNE,32,0.0,1.0,88,0.00,,,0.00,18,Wunderground v.1.15,2013-01-03 13:10:00,
2013-01-03 08:15:00,35.6,32.4,30.23,NNE,32,0.0,1.0,88,0.00,,,0.00,21,Wunderground v.1.15,2013-01-03 13:15:00,
2013-01-03 08:20:00,35.7,32.2,30.24,NNE,32,0.0,1.0,87,0.00,,,0.00,26,Wunderground v.1.15,2013-01-03 13:20:00,
2013-01-03 08:30:00,35.7,32.2,30.24,NNE,32,0.0,1.0,87,0.00,,,0.00,26,Wunderground v.1.15,2013-01-03 13:30:00,
2013-01-03 08:40:00,35.7,32.2,30.24,NNE,32,0.0,1.0,87,0.00,,,0.00,47,Wunderground v.1.15,2013-01-03 13:40:00,
2013-01-03 08:45:00,35.7,31.9,30.24,NNE,32,0.0,1.0,86,0.00,,,0.00,46,Wunderground v.1.15,2013-01-03 13:45:00,
2013-01-03 08:50:00,35.7,31.6,30.24,NE,35,0.0,1.0,85,0.00,,,0.00,39,Wunderground v.1.15,2013-01-03 13:50:00,
2013-01-03 08:55:00,35.7,31.3,30.24,NE,35,0.0,1.0,84,0.00,,,0.00,40,Wunderground v.1.15,2013-01-03 13:55:00,
2013-01-03 09:00:00,35.7,31.6,30.25,NE,35,0.0,1.0,85,0.00,,,0.00,47,Wunderground v.1.15,2013-01-03 14:00:00,
2013-01-03 09:10:00,35.9,31.5,30.25,NE,35,0.0,1.0,84,0.00,,,0.00,51,Wunderground v.1.15,2013-01-03 14:10:00,
2013-01-03 09:15:00,35.9,31.2,30.25,NE,35,0.0,1.0,83,0.00,,,0.00,47,Wunderground v.1.15,2013-01-03 14:15:00,
2013-01-03 09:20:00,36.0,31.3,30.25,NE,35,0.0,1.0,83,0.00,,,0.00,56,Wunderground v.1.15,2013-01-03 14:20:00,
2013-01-03 09:25:00,36.0,31.3,30.25,NE,35,0.0,1.0,83,0.00,,,0.00,60,Wunderground v.1.15,2013-01-03 14:25:00,
2013-01-03 09:30:00,36.1,31.4,30.25,NE,35,0.0,1.0,83,0.00,,,0.00,62,Wunderground v.1.15,2013-01-03 14:30:00,
2013-01-03 09:40:00,36.2,31.2,30.25,NE,35,0.0,1.0,82,0.00,,,0.00,60,Wunderground v.1.15,2013-01-03 14:40:00,
2013-01-03 09:50:00,36.3,30.7,30.26,NE,35,0.0,1.0,80,0.00,,,0.00,56,Wunderground v.1.15,2013-01-03 14:50:00,
2013-01-03 09:55:00,36.3,30.7,30.26,NE,35,0.0,1.0,80,0.00,,,0.00,81,Wunderground v.1.15,2013-01-03 14:55:00,
2013-01-03 10:00:00,36.4,30.8,30.26,NE,35,0.0,1.0,80,0.00,,,0.00,91,Wunderground v.1.15,2013-01-03 15:00:00,
2013-01-03 10:05:00,36.5,30.9,30.25,NE,35,0.0,1.0,80,0.00,,,0.00,97,Wunderground v.1.15,2013-01-03 15:05:00,
2013-01-03 10:10:00,36.6,31.0,30.26,NE,35,0.0,1.0,80,0.00,,,0.00,70,Wunderground v.1.15,2013-01-03 15:10:00,
2013-01-03 10:15:00,36.7,30.8,30.26,NE,35,0.0,1.0,79,0.00,,,0.00,76,Wunderground v.1.15,2013-01-03 15:15:00,
2013-01-03 10:20:00,36.7,30.5,30.26,NE,35,0.0,1.0,78,0.00,,,0.00,107,Wunderground v.1.15,2013-01-03 15:20:00,
2013-01-03 10:25:00,36.8,30.9,30.26,NE,35,0.0,1.0,79,0.00,,,0.00,132,Wunderground v.1.15,2013-01-03 15:25:00,
2013-01-03 10:30:00,36.9,30.7,30.26,North,5,0.0,2.0,78,0.00,,,0.00,127,Wunderground v.1.15,2013-01-03 15:30:00,
2013-01-03 10:35:00,36.9,30.7,30.25,SW,227,0.0,2.0,78,0.00,,,0.00,156,Wunderground v.1.15,2013-01-03 15:35:00,
2013-01-03 10:40:00,37.1,30.6,30.26,South,186,0.0,1.0,77,0.00,,,0.00,127,Wunderground v.1.15,2013-01-03 15:40:00,
2013-01-03 10:45:00,37.3,30.7,30.25,South,186,0.0,1.0,77,0.00,,,0.00,130,Wunderground v.1.15,2013-01-03 15:45:00,
2013-01-03 10:55:00,37.5,30.9,30.25,South,186,0.0,1.0,77,0.00,,,0.00,185,Wunderground v.1.15,2013-01-03 15:55:00,
2013-01-03 11:00:00,37.7,30.5,30.25,SSW,197,0.0,2.0,75,0.00,,,0.00,142,Wunderground v.1.15,2013-01-03 16:00:00,
2013-01-03 11:05:00,37.7,30.2,30.25,SSW,196,1.0,2.0,74,0.00,,,0.00,132,Wunderground v.1.15,2013-01-03 16:05:00,
2013-01-03 11:10:00,37.7,30.8,30.24,South,190,1.0,3.0,76,0.00,,,0.00,188,Wunderground v.1.15,2013-01-03 16:10:00,
2013-01-03 11:15:00,37.9,31.0,30.25,South,173,1.0,3.0,76,0.00,,,0.00,153,Wunderground v.1.15,2013-01-03 16:15:00,
2013-01-03 11:20:00,37.9,31.0,30.24,South,190,1.0,1.0,76,0.00,,,0.00,165,Wunderground v.1.15,2013-01-03 16:20:00,
2013-01-03 11:25:00,38.0,30.8,30.23,SSE,149,1.0,1.0,75,0.00,,,0.00,158,Wunderground v.1.15,2013-01-03 16:25:00,
2013-01-03 11:30:00,38.0,30.8,30.24,SSW,202,0.0,1.0,75,0.00,,,0.00,113,Wunderground v.1.15,2013-01-03 16:30:00,
2013-01-03 11:35:00,37.9,30.7,30.23,SSW,205,0.0,1.0,75,0.00,,,0.00,239,Wunderground v.1.15,2013-01-03 16:35:00,
2013-01-03 11:40:00,38.0,31.1,30.22,South,188,0.0,1.0,76,0.00,,,0.00,229,Wunderground v.1.15,2013-01-03 16:40:00,
2013-01-03 11:45:00,38.2,31.3,30.23,West,261,0.0,1.0,76,0.00,,,0.00,127,Wunderground v.1.15,2013-01-03 16:45:00,
2013-01-03 11:50:00,38.5,32.2,30.22,SE,136,0.0,1.0,78,0.00,,,0.00,234,Wunderground v.1.15,2013-01-03 16:50:00,
2013-01-03 11:55:00,38.6,31.4,30.21,SE,130,0.0,1.0,75,0.00,,,0.00,271,Wunderground v.1.15,2013-01-03 16:55:00,
2013-01-03 12:05:00,39.1,31.8,30.21,WSW,253,0.0,1.0,75,0.00,,,0.00,221,Wunderground v.1.15,2013-01-03 17:05:00,
2013-01-03 12:10:00,38.9,32.0,30.21,SW,235,0.0,1.0,76,0.00,,,0.00,183,Wunderground v.1.15,2013-01-03 17:10:00,
2013-01-03 12:15:00,39.3,33.0,30.21,SSE,157,0.0,1.0,78,0.00,,,0.00,206,Wunderground v.1.15,2013-01-03 17:15:00,
2013-01-03 12:20:00,39.4,32.5,30.20,SSE,165,0.0,1.0,76,0.00,,,0.00,253,Wunderground v.1.15,2013-01-03 17:20:00,
2013-01-03 12:30:00,38.8,31.6,30.20,WNW,298,0.0,1.0,75,0.00,,,0.00,155,Wunderground v.1.15,2013-01-03 17:30:00,
2013-01-03 12:35:00,38.8,31.9,30.20,WNW,298,0.0,1.0,76,0.00,,,0.00,146,Wunderground v.1.15,2013-01-03 17:35:00,
2013-01-03 12:40:00,38.9,32.0,30.20,WNW,298,0.0,1.0,76,0.00,,,0.00,125,Wunderground v.1.15,2013-01-03 17:40:00,
2013-01-03 12:45:00,39.0,31.7,30.19,WNW,298,0.0,1.0,75,0.00,,,0.00,151,Wunderground v.1.15,2013-01-03 17:45:00,
2013-01-03 12:50:00,39.1,32.2,30.20,WNW,298,0.0,1.0,76,0.00,,,0.00,98,Wunderground v.1.15,2013-01-03 17:50:00,
2013-01-03 12:55:00,39.2,31.9,30.19,WNW,298,0.0,1.0,75,0.00,,,0.00,102,Wunderground v.1.15,2013-01-03 17:55:00,
2013-01-03 13:00:00,39.2,31.9,30.19,WNW,298,0.0,1.0,75,0.00,,,0.00,128,Wunderground v.1.15,2013-01-03 18:00:00,
2013-01-03 13:05:00,39.3,32.0,30.19,WNW,298,0.0,1.0,75,0.00,,,0.00,127,Wunderground v.1.15,2013-01-03 18:05:00,
2013-01-03 13:15:00,39.5,32.2,30.18,WNW,298,0.0,1.0,75,0.00,,,0.00,125,Wunderground v.1.15,2013-01-03 18:15:00,
2013-01-03 13:20:00,39.5,32.6,30.19,WNW,298,0.0,1.0,76,0.00,,,0.00,102,Wunderground v.1.15,2013-01-03 18:20:00,
2013-01-03 13:25:00,39.6,32.7,30.18,WNW,298,0.0,1.0,76,0.00,,,0.00,100,Wunderground v.1.15,2013-01-03 18:25:00,
2013-01-03 13:30:00,39.6,32.7,30.18,WNW,298,0.0,1.0,76,0.00,,,0.00,104,Wunderground v.1.15,2013-01-03 18:30:00,
2013-01-03 13:35:00,39.7,33.1,30.18,WNW,298,0.0,1.0,77,0.00,,,0.00,98,Wunderground v.1.15,2013-01-03 18:35:00,
2013-01-03 13:40:00,39.8,33.5,30.18,WNW,298,0.0,1.0,78,0.00,,,0.00,84,Wunderground v.1.15,2013-01-03 18:40:00,
2013-01-03 13:45:00,39.8,32.5,30.19,WNW,298,0.0,1.0,75,0.00,,,0.00,81,Wunderground v.1.15,2013-01-03 18:45:00,
2013-01-03 13:50:00,39.8,33.5,30.18,NW,315,0.0,3.0,78,0.00,,,0.00,81,Wunderground v.1.15,2013-01-03 18:50:00,
2013-01-03 13:55:00,39.8,32.8,30.19,NW,315,1.0,3.0,76,0.00,,,0.00,84,Wunderground v.1.15,2013-01-03 18:55:00,
2013-01-03 14:05:00,39.7,33.1,30.19,NW,315,0.0,1.0,77,0.00,,,0.00,102,Wunderground v.1.15,2013-01-03 19:05:00,
2013-01-03 14:10:00,39.8,32.8,30.19,NW,315,0.0,1.0,76,0.00,,,0.00,93,Wunderground v.1.15,2013-01-03 19:10:00,
2013-01-03 14:15:00,39.8,32.8,30.19,NW,315,0.0,1.0,76,0.00,,,0.00,109,Wunderground v.1.15,2013-01-03 19:15:00,
2013-01-03 15:01:00,40.0,33.4,30.19,NW,315,0.0,1.0,77,0.00,,,0.00,56,Wunderground v.1.15,2013-01-03 20:01:00,
2013-01-03 15:10:00,40.2,33.9,30.19,NW,315,0.0,1.0,78,0.00,,,0.00,54,Wunderground v.1.15,2013-01-03 20:10:00,
2013-01-03 15:15:00,40.3,34.3,30.20,NW,315,1.0,1.0,79,0.00,,,0.00,53,Wunderground v.1.15,2013-01-03 20:15:00,
2013-01-03 15:20:00,40.3,34.3,30.19,NW,315,1.0,1.0,79,0.00,,,0.00,51,Wunderground v.1.15,2013-01-03 20:20:00,
2013-01-03 15:25:00,40.4,34.1,30.19,NW,315,0.0,1.0,78,0.00,,,0.00,54,Wunderground v.1.15,2013-01-03 20:25:00,
2013-01-03 15:35:00,40.4,34.1,30.20,NW,315,0.0,1.0,78,0.00,,,0.00,47,Wunderground v.1.15,2013-01-03 20:35:00,
2013-01-03 15:40:00,40.4,34.1,30.20,NW,315,0.0,1.0,78,0.00,,,0.00,47,Wunderground v.1.15,2013-01-03 20:40:00,
2013-01-03 15:45:00,40.4,33.8,30.20,NW,315,0.0,1.0,77,0.00,,,0.00,47,Wunderground v.1.15,2013-01-03 20:45:00,
2013-01-03 15:50:00,40.4,34.1,30.20,NW,315,0.0,1.0,78,0.00,,,0.00,47,Wunderground v.1.15,2013-01-03 20:50:00,
2013-01-03 15:55:00,40.5,34.2,30.20,NW,315,0.0,1.0,78,0.00,,,0.00,58,Wunderground v.1.15,2013-01-03 20:55:00,
2013-01-03 16:00:00,40.5,34.2,30.20,NW,315,0.0,1.0,78,0.00,,,0.00,65,Wunderground v.1.15,2013-01-03 21:00:00,
2013-01-03 16:05:00,40.5,34.2,30.20,NW,315,0.0,1.0,78,0.00,,,0.00,65,Wunderground v.1.15,2013-01-03 21:05:00,
2013-01-03 16:10:00,40.5,34.2,30.21,NW,315,0.0,1.0,78,0.00,,,0.00,53,Wunderground v.1.15,2013-01-03 21:10:00,
2013-01-03 16:15:00,40.6,34.6,30.20,NW,315,0.0,1.0,79,0.00,,,0.00,49,Wunderground v.1.15,2013-01-03 21:15:00,
2013-01-03 16:20:00,40.6,34.6,30.21,NW,315,0.0,1.0,79,0.00,,,0.00,49,Wunderground v.1.15,2013-01-03 21:20:00,
2013-01-03 16:30:00,40.7,35.0,30.21,NW,315,0.0,1.0,80,0.00,,,0.00,44,Wunderground v.1.15,2013-01-03 21:30:00,
2013-01-03 16:35:00,40.6,34.9,30.20,NW,315,0.0,1.0,80,0.00,,,0.00,30,Wunderground v.1.15,2013-01-03 21:35:00,
2013-01-03 16:40:00,40.6,34.9,30.21,NW,315,0.0,1.0,80,0.00,,,0.00,25,Wunderground v.1.15,2013-01-03 21:40:00,
2013-01-03 16:45:00,40.6,35.2,30.21,NW,315,0.0,1.0,81,0.00,,,0.00,23,Wunderground v.1.15,2013-01-03 21:45:00,
2013-01-03 16:50:00,40.6,35.2,30.22,SSW,202,0.0,1.0,81,0.00,,,0.00,18,Wunderground v.1.15,2013-01-03 21:50:00,
2013-01-03 16:55:00,40.5,35.4,30.21,SSW,202,0.0,2.0,82,0.00,,,0.00,11,Wunderground v.1.15,2013-01-03 21:55:00,
2013-01-03 17:00:00,40.4,35.6,30.21,SSW,202,1.0,1.0,83,0.00,,,0.00,7,Wunderground v.1.15,2013-01-03 22:00:00,
2013-01-03 17:10:00,40.4,35.9,30.21,SSW,212,0.0,1.0,84,0.00,,,0.00,0,Wunderground v.1.15,2013-01-03 22:10:00,
2013-01-03 17:15:00,40.2,35.8,30.22,SSW,212,0.0,1.0,84,0.00,,,0.00,0,Wunderground v.1.15,2013-01-03 22:15:00,
2013-01-03 17:20:00,40.1,35.7,30.21,SSW,212,0.0,1.0,84,0.00,,,0.00,0,Wunderground v.1.15,2013-01-03 22:20:00,
2013-01-03 17:25:00,40.1,36.0,30.22,SSW,212,0.0,1.0,85,0.00,,,0.00,0,Wunderground v.1.15,2013-01-03 22:25:00,
2013-01-03 17:30:00,39.9,35.8,30.22,SSW,212,0.0,1.0,85,0.00,,,0.00,0,Wunderground v.1.15,2013-01-03 22:30:00,
2013-01-03 17:35:00,39.4,35.3,30.22,SSW,212,0.0,1.0,85,0.00,,,0.00,0,Wunderground v.1.15,2013-01-03 22:35:00,
2013-01-03 17:40:00,38.9,34.8,30.22,SSW,212,0.0,1.0,85,0.00,,,0.00,0,Wunderground v.1.15,2013-01-03 22:40:00,
2013-01-03 17:45:00,38.4,34.6,30.22,SSW,212,0.0,1.0,86,0.00,,,0.00,0,Wunderground v.1.15,2013-01-03 22:45:00,
2013-01-03 17:55:00,38.0,34.8,30.23,SSW,212,0.0,1.0,88,0.00,,,0.00,0,Wunderground v.1.15,2013-01-03 22:55:00,
2013-01-03 18:00:00,37.8,34.6,30.23,SSW,212,0.0,1.0,88,0.00,,,0.00,0,Wunderground v.1.15,2013-01-03 23:00:00,
2013-01-03 18:05:00,37.5,34.3,30.23,SSW,212,0.0,1.0,88,0.00,,,0.00,0,Wunderground v.1.15,2013-01-03 23:05:00,
2013-01-03 18:15:00,37.1,34.4,30.23,SSW,212,0.0,1.0,90,0.00,,,0.00,0,Wunderground v.1.15,2013-01-03 23:15:00,
2013-01-03 18:20:00,37.0,34.3,30.23,SSW,212,0.0,1.0,90,0.00,,,0.00,0,Wunderground v.1.15,2013-01-03 23:20:00,
2013-01-03 18:25:00,36.9,34.2,30.23,SSW,212,0.0,1.0,90,0.00,,,0.00,0,Wunderground v.1.15,2013-01-03 23:25:00,
2013-01-03 18:30:00,36.7,34.3,30.23,SSW,212,0.0,1.0,91,0.00,,,0.00,0,Wunderground v.1.15,2013-01-03 23:30:00,
2013-01-03 18:40:00,36.2,33.5,30.23,SSW,212,0.0,1.0,90,0.00,,,0.00,0,Wunderground v.1.15,2013-01-03 23:40:00,
2013-01-03 18:45:00,35.8,33.4,30.23,SSW,212,0.0,1.0,91,0.00,,,0.00,0,Wunderground v.1.15,2013-01-03 23:45:00,
2013-01-03 18:50:00,35.7,33.6,30.23,SSW,212,0.0,1.0,92,0.00,,,0.00,0,Wunderground v.1.15,2013-01-03 23:50:00,
2013-01-03 19:00:00,35.2,33.1,30.23,SSW,212,0.0,1.0,92,0.00,,,0.00,0,Wunderground v.1.15,2013-01-04 00:00:00,
2013-01-03 19:05:00,35.1,33.0,30.24,SSW,212,0.0,1.0,92,0.00,,,0.00,0,Wunderground v.1.15,2013-01-04 00:05:00,
2013-01-03 19:10:00,35.0,33.2,30.24,SSW,212,0.0,1.0,93,0.00,,,0.00,0,Wunderground v.1.15,2013-01-04 00:10:00,
2013-01-03 19:15:00,35.1,33.3,30.24,SSW,212,0.0,1.0,93,0.00,,,0.00,0,Wunderground v.1.15,2013-01-04 00:15:00,
2013-01-03 19:20:00,35.0,33.2,30.24,SSW,212,0.0,1.0,93,0.00,,,0.00,0,Wunderground v.1.15,2013-01-04 00:20:00,
2013-01-03 19:25:00,35.1,33.5,30.25,SSW,212,0.0,1.0,94,0.00,,,0.00,0,Wunderground v.1.15,2013-01-04 00:25:00,
2013-01-03 19:30:00,35.5,33.9,30.24,SSW,212,0.0,1.0,94,0.00,,,0.00,0,Wunderground v.1.15,2013-01-04 00:30:00,
2013-01-03 19:40:00,35.1,33.5,30.24,SSW,212,0.0,1.0,94,0.00,,,0.00,0,Wunderground v.1.15,2013-01-04 00:40:00,
2013-01-03 19:45:00,34.8,33.2,30.24,SSW,212,0.0,1.0,94,0.00,,,0.00,0,Wunderground v.1.15,2013-01-04 00:45:00,
2013-01-03 19:50:00,34.7,33.2,30.24,SSW,212,0.0,1.0,94,0.00,,,0.00,0,Wunderground v.1.15,2013-01-04 00:50:00,
2013-01-03 20:00:00,34.4,32.9,30.24,SSW,212,0.0,1.0,94,0.00,,,0.00,0,Wunderground v.1.15,2013-01-04 01:00:00,
2013-01-03 20:05:00,34.0,32.5,30.25,SSW,212,0.0,1.0,94,0.00,,,0.00,0,Wunderground v.1.15,2013-01-04 01:05:00,
2013-01-03 20:10:00,33.8,32.3,30.24,SSW,212,0.0,1.0,94,0.00,,,0.00,0,Wunderground v.1.15,2013-01-04 01:10:00,
2013-01-03 20:15:00,33.6,32.1,30.25,SSW,212,0.0,1.0,94,0.00,,,0.00,0,Wunderground v.1.15,2013-01-04 01:15:00,
2013-01-03 20:20:00,33.6,32.1,30.25,SSW,212,0.0,1.0,94,0.00,,,0.00,0,Wunderground v.1.15,2013-01-04 01:20:00,
2013-01-03 20:25:00,33.2,31.7,30.25,SSW,212,0.0,1.0,94,0.00,,,0.00,0,Wunderground v.1.15,2013-01-04 01:25:00,
2013-01-03 20:35:00,32.8,31.3,30.25,SSW,212,0.0,1.0,94,0.00,,,0.00,0,Wunderground v.1.15,2013-01-04 01:35:00,
2013-01-03 20:40:00,32.7,31.2,30.25,SSW,212,0.0,1.0,94,0.00,,,0.00,0,Wunderground v.1.15,2013-01-04 01:40:00,
2013-01-03 20:45:00,32.6,31.3,30.25,SSW,212,0.0,1.0,95,0.00,,,0.00,0,Wunderground v.1.15,2013-01-04 01:45:00,
2013-01-03 20:55:00,32.6,31.3,30.25,SSW,212,0.0,1.0,95,0.00,,,0.00,0,Wunderground v.1.15,2013-01-04 01:55:00,
2013-01-03 21:00:00,32.9,31.6,30.25,SSW,212,0.0,1.0,95,0.00,,,0.00,0,Wunderground v.1.15,2013-01-04 02:00:00,
2013-01-03 21:05:00,32.8,31.5,30.24,SSW,212,0.0,1.0,95,0.00,,,0.00,0,Wunderground v.1.15,2013-01-04 02:05:00,
2013-01-03 21:10:00,32.6,31.3,30.25,SSW,212,0.0,1.0,95,0.00,,,0.00,0,Wunderground v.1.15,2013-01-04 02:10:00,
2013-01-03 21:15:00,32.3,31.0,30.24,SSW,212,0.0,1.0,95,0.00,,,0.00,0,Wunderground v.1.15,2013-01-04 02:15:00,
2013-01-03 21:20:00,32.1,30.8,30.25,SSW,212,0.0,1.0,95,0.00,,,0.00,0,Wunderground v.1.15,2013-01-04 02:20:00,
2013-01-03 21:25:00,32.0,30.7,30.25,SSW,212,0.0,1.0,95,0.00,,,0.00,0,Wunderground v.1.15,2013-01-04 02:25:00,
2013-01-03 21:30:00,32.1,30.8,30.25,SSW,212,0.0,1.0,95,0.00,,,0.00,0,Wunderground v.1.15,2013-01-04 02:30:00,
2013-01-03 21:35:00,32.0,30.7,30.25,SSW,212,0.0,1.0,95,0.00,,,0.00,0,Wunderground v.1.15,2013-01-04 02:35:00,
2013-01-03 21:45:00,31.9,30.6,30.25,SSW,212,0.0,1.0,95,0.00,,,0.00,0,Wunderground v.1.15,2013-01-04 02:45:00,
2013-01-03 21:50:00,31.9,30.6,30.25,SSW,212,0.0,1.0,95,0.00,,,0.00,0,Wunderground v.1.15,2013-01-04 02:50:00,
2013-01-03 21:55:00,32.0,31.0,30.25,SSW,212,0.0,1.0,96,0.00,,,0.00,0,Wunderground v.1.15,2013-01-04 02:55:00,
2013-01-03 22:00:00,32.3,31.3,30.25,SSW,212,0.0,1.0,96,0.00,,,0.00,0,Wunderground v.1.15,2013-01-04 03:00:00,
2013-01-03 22:05:00,32.7,31.7,30.25,SSW,212,0.0,1.0,96,0.00,,,0.00,0,Wunderground v.1.15,2013-01-04 03:05:00,
2013-01-03 22:10:00,32.9,31.9,30.25,SSW,212,0.0,1.0,96,0.00,,,0.00,0,Wunderground v.1.15,2013-01-04 03:10:00,
2013-01-03 22:20:00,33.0,32.0,30.25,SSW,212,0.0,1.0,96,0.00,,,0.00,0,Wunderground v.1.15,2013-01-04 03:20:00,
2013-01-03 22:25:00,33.3,32.3,30.25,SSW,212,0.0,1.0,96,0.00,,,0.00,0,Wunderground v.1.15,2013-01-04 03:25:00,
2013-01-03 22:30:00,33.1,32.1,30.25,SSW,212,0.0,1.0,96,0.00,,,0.00,0,Wunderground v.1.15,2013-01-04 03:30:00,
2013-01-03 22:35:00,32.7,31.7,30.25,SSW,212,0.0,1.0,96,0.00,,,0.00,0,Wunderground v.1.15,2013-01-04 03:35:00,
2013-01-03 22:40:00,32.9,31.9,30.25,SSW,212,0.0,1.0,96,0.00,,,0.00,0,Wunderground v.1.15,2013-01-04 03:40:00,
2013-01-03 22:45:00,33.0,32.0,30.25,SSW,212,0.0,1.0,96,0.00,,,0.00,0,Wunderground v.1.15,2013-01-04 03:45:00,
2013-01-03 22:50:00,33.2,32.2,30.25,SSW,212,0.0,1.0,96,0.00,,,0.00,0,Wunderground v.1.15,2013-01-04 03:50:00,
2013-01-03 23:00:00,32.9,31.9,30.25,SSW,212,0.0,1.0,96,0.00,,,0.00,0,Wunderground v.1.15,2013-01-04 04:00:00,
2013-01-03 23:10:00,32.6,31.6,30.25,SSW,212,0.0,1.0,96,0.00,,,0.00,0,Wunderground v.1.15,2013-01-04 04:10:00,
2013-01-03 23:15:00,32.4,31.4,30.26,SSW,212,0.0,1.0,96,0.00,,,0.00,0,Wunderground v.1.15,2013-01-04 04:15:00,
2013-01-03 23:20:00,32.1,31.1,30.26,SSW,212,0.0,1.0,96,0.00,,,0.00,0,Wunderground v.1.15,2013-01-04 04:20:00,
2013-01-03 23:25:00,32.6,31.6,30.25,SSW,212,0.0,1.0,96,0.00,,,0.00,0,Wunderground v.1.15,2013-01-04 04:25:00,
2013-01-03 23:35:00,32.9,31.9,30.26,SSW,212,0.0,1.0,96,0.00,,,0.00,0,Wunderground v.1.15,2013-01-04 04:35:00,
2013-01-03 23:40:00,32.6,31.6,30.26,SSW,212,0.0,1.0,96,0.00,,,0.00,0,Wunderground v.1.15,2013-01-04 04:40:00,
2013-01-03 23:45:00,32.4,31.4,30.26,SSW,212,0.0,1.0,96,0.00,,,0.00,0,Wunderground v.1.15,2013-01-04 04:45:00,
2013-01-03 23:55:00,32.6,31.6,30.25,SSW,212,0.0,1.0,96,0.00,,,0.00,0,Wunderground v.1.15,2013-01-04 04:55:00,